WAT462 KDAB-KCRW

Flight info

Callsign WAT462
Flight time N/A
Altitude 17000
Route ROYES7 CRG RIELE WBODY SUZNN
Aircraft B58T/L-SDFGRY/C

Departure

Time 2026-04-26 17:36
Airport Daytona Beach International Airport (KDAB)

Arrival

Time N/A
Airport Yeager Airport (KCRW)
Time Latitude Longitude Altitude Speed Heading
2026-04-26 17:17 29.18069 -81.04931 38 ft 0 kts 179°
2026-04-26 17:29 29.18068 -81.04931 38 ft 0 kts 179°
2026-04-26 17:30 29.18065 -81.04930 38 ft 3 kts 149°
2026-04-26 17:30 29.18052 -81.04910 38 ft 0 kts 130°
2026-04-26 17:30 29.18042 -81.04900 38 ft 0 kts 147°
2026-04-26 17:32 29.18041 -81.04899 38 ft 2 kts 147°
2026-04-26 17:32 29.18007 -81.04860 37 ft 9 kts 69°
2026-04-26 17:32 29.18012 -81.04805 37 ft 0 kts 136°
2026-04-26 17:34 29.18011 -81.04804 37 ft 2 kts 140°
2026-04-26 17:35 29.17961 -81.04808 35 ft 10 kts 237°
2026-04-26 17:35 29.17939 -81.04862 34 ft 35 kts 245°
2026-04-26 17:35 29.17728 -81.05384 57 ft 99 kts 245°
2026-04-26 17:35 29.17409 -81.06207 238 ft 126 kts 246°
2026-04-26 17:36 29.17052 -81.07156 670 ft 126 kts 248°
2026-04-26 17:36 29.16786 -81.08076 1193 ft 124 kts 256°
2026-04-26 17:36 29.16641 -81.09093 1560 ft 132 kts 267°
2026-04-26 17:36 29.16460 -81.10173 1803 ft 148 kts 254°
2026-04-26 17:37 29.16065 -81.11323 1994 ft 158 kts 245°
2026-04-26 17:37 29.15762 -81.12489 2453 ft 151 kts 269°
2026-04-26 17:37 29.16085 -81.13610 2844 ft 152 kts 302°
2026-04-26 17:38 29.17686 -81.15195 3532 ft 158 kts 323°
2026-04-26 17:38 29.18585 -81.15810 4059 ft 147 kts 328°
2026-04-26 17:38 29.19557 -81.16300 4335 ft 158 kts 336°
2026-04-26 17:38 29.20580 -81.16718 4772 ft 152 kts 336°
2026-04-26 17:39 29.21547 -81.17160 5088 ft 153 kts 333°
2026-04-26 17:39 29.22540 -81.17754 5098 ft 169 kts 334°
2026-04-26 17:39 29.23612 -81.18254 5399 ft 161 kts 334°
2026-04-26 17:39 29.24628 -81.18742 5746 ft 156 kts 330°
2026-04-26 17:40 29.25601 -81.19293 6057 ft 151 kts 332°
2026-04-26 17:40 29.26217 -81.19538 6532 ft 136 kts 342°
2026-04-26 17:40 29.27410 -81.20116 6871 ft 142 kts 307°
2026-04-26 17:40 29.27813 -81.21105 7253 ft 136 kts 285°
2026-04-26 17:41 29.28166 -81.22105 7627 ft 135 kts 296°
2026-04-26 17:41 29.28704 -81.22987 8001 ft 135 kts 308°
2026-04-26 17:41 29.29370 -81.23754 8373 ft 136 kts 315°
2026-04-26 17:41 29.30098 -81.24445 8754 ft 136 kts 319°
2026-04-26 17:42 29.30860 -81.25082 9126 ft 134 kts 320°
2026-04-26 17:42 29.31616 -81.25695 9503 ft 134 kts 321°
2026-04-26 17:42 29.32381 -81.26312 9879 ft 136 kts 321°
2026-04-26 17:42 29.33169 -81.26919 10256 ft 135 kts 321°
2026-04-26 17:43 29.33945 -81.27520 10632 ft 133 kts 322°
2026-04-26 17:43 29.34709 -81.28120 11007 ft 135 kts 321°
2026-04-26 17:43 29.35473 -81.28736 11383 ft 135 kts 320°
2026-04-26 17:43 29.36251 -81.29342 11764 ft 137 kts 322°
2026-04-26 17:44 29.37053 -81.29955 12141 ft 140 kts 321°
2026-04-26 17:44 29.37862 -81.30581 12515 ft 142 kts 321°
2026-04-26 17:44 29.38684 -81.31205 12895 ft 143 kts 322°
2026-04-26 17:44 29.39511 -81.31841 13271 ft 144 kts 321°
2026-04-26 17:45 29.40344 -81.32484 13645 ft 144 kts 321°
2026-04-26 17:45 29.41186 -81.33144 14022 ft 148 kts 321°
2026-04-26 17:45 29.42044 -81.33807 14395 ft 149 kts 322°
2026-04-26 17:45 29.42907 -81.34475 14770 ft 150 kts 321°
2026-04-26 17:46 29.43775 -81.35151 15148 ft 152 kts 321°
2026-04-26 17:46 29.44643 -81.35830 15520 ft 151 kts 321°
2026-04-26 17:46 29.45509 -81.36508 15895 ft 151 kts 321°
2026-04-26 17:46 29.46380 -81.37186 16270 ft 151 kts 321°
2026-04-26 17:47 29.47249 -81.37859 16646 ft 150 kts 321°
2026-04-26 17:47 29.47822 -81.38304 16894 ft 150 kts 321°
2026-04-26 17:47 29.48792 -81.39066 17467 ft 171 kts 322°
2026-04-26 17:47 29.49819 -81.39865 17546 ft 184 kts 322°
2026-04-26 17:48 29.50978 -81.40767 17048 ft 218 kts 322°
2026-04-26 17:48 29.52248 -81.41751 17009 ft 222 kts 323°
2026-04-26 17:48 29.53559 -81.42712 16982 ft 226 kts 329°
2026-04-26 17:48 29.55082 -81.43240 16965 ft 234 kts 350°
2026-04-26 17:49 29.56716 -81.43316 16958 ft 235 kts 351°
2026-04-26 17:49 29.58346 -81.43486 16954 ft 236 kts 349°
2026-04-26 17:49 29.59973 -81.43667 16948 ft 232 kts 351°
2026-04-26 17:49 29.61545 -81.43824 16950 ft 225 kts 348°
2026-04-26 17:50 29.63090 -81.44014 16949 ft 222 kts 349°
2026-04-26 17:50 29.64620 -81.44175 16947 ft 220 kts 350°
2026-04-26 17:50 29.66146 -81.44327 16946 ft 219 kts 350°
2026-04-26 17:50 29.67663 -81.44475 16941 ft 218 kts 350°
2026-04-26 17:51 29.69174 -81.44625 16946 ft 218 kts 349°
2026-04-26 17:51 29.70684 -81.44774 16968 ft 217 kts 350°
2026-04-26 17:51 29.72189 -81.44927 16998 ft 216 kts 350°
2026-04-26 17:51 29.73678 -81.45058 17009 ft 214 kts 350°
2026-04-26 17:52 29.75159 -81.45199 17016 ft 213 kts 350°
2026-04-26 17:52 29.76635 -81.45344 17018 ft 213 kts 349°
2026-04-26 17:52 29.78111 -81.45491 17025 ft 212 kts 349°
2026-04-26 17:52 29.79581 -81.45635 17028 ft 212 kts 350°
2026-04-26 17:53 29.81052 -81.45780 17030 ft 212 kts 350°
2026-04-26 17:53 29.82525 -81.45925 17031 ft 212 kts 349°
2026-04-26 17:53 29.83998 -81.46071 17031 ft 214 kts 349°
2026-04-26 17:54 29.87008 -81.46390 17033 ft 221 kts 349°
2026-04-26 17:54 29.88555 -81.46540 17034 ft 225 kts 350°
2026-04-26 17:54 29.90124 -81.46684 17032 ft 227 kts 350°
2026-04-26 17:54 29.91708 -81.46831 17032 ft 229 kts 350°
2026-04-26 17:55 29.93301 -81.46986 17032 ft 230 kts 350°
2026-04-26 17:55 29.94900 -81.47144 17035 ft 231 kts 350°
2026-04-26 17:55 29.96508 -81.47302 17031 ft 232 kts 350°
2026-04-26 17:55 29.98121 -81.47461 17030 ft 233 kts 350°
2026-04-26 17:56 29.99738 -81.47620 17029 ft 233 kts 350°
2026-04-26 17:56 30.02974 -81.47939 17029 ft 234 kts 350°
2026-04-26 17:57 30.06212 -81.48256 17030 ft 234 kts 350°
2026-04-26 17:57 30.07832 -81.48415 17031 ft 234 kts 350°
2026-04-26 17:57 30.09453 -81.48575 17032 ft 234 kts 350°
2026-04-26 17:57 30.11076 -81.48737 17031 ft 234 kts 350°
2026-04-26 17:58 30.15965 -81.49226 17040 ft 235 kts 350°
2026-04-26 17:59 30.19231 -81.49562 17037 ft 237 kts 350°
2026-04-26 17:59 30.20875 -81.49717 17024 ft 237 kts 350°
2026-04-26 17:59 30.22519 -81.49874 17019 ft 237 kts 350°
2026-04-26 17:59 30.24160 -81.50032 17024 ft 236 kts 350°
2026-04-26 18:00 30.25797 -81.50193 17024 ft 236 kts 350°
2026-04-26 18:00 30.27431 -81.50354 17022 ft 236 kts 350°
2026-04-26 18:00 30.29064 -81.50516 17022 ft 235 kts 350°
2026-04-26 18:00 30.30694 -81.50678 17022 ft 235 kts 350°
2026-04-26 18:01 30.32324 -81.50839 17022 ft 235 kts 350°
2026-04-26 18:01 30.33958 -81.50948 17022 ft 236 kts 354°
2026-04-26 18:01 30.35606 -81.50906 17022 ft 237 kts 357°
2026-04-26 18:01 30.37257 -81.50816 17023 ft 238 kts 357°
2026-04-26 18:02 30.38907 -81.50732 17022 ft 238 kts 357°
2026-04-26 18:02 30.40001 -81.50678 17022 ft 238 kts 357°
2026-04-26 18:02 30.42211 -81.50572 17022 ft 237 kts 357°
2026-04-26 18:02 30.43862 -81.50491 17021 ft 237 kts 357°
2026-04-26 18:03 30.45512 -81.50411 17021 ft 237 kts 357°
2026-04-26 18:03 30.47161 -81.50330 17022 ft 237 kts 357°
2026-04-26 18:03 30.48809 -81.50247 17022 ft 237 kts 357°
2026-04-26 18:03 30.50458 -81.50165 17022 ft 237 kts 357°
2026-04-26 18:04 30.52104 -81.50084 17026 ft 236 kts 357°
2026-04-26 18:04 30.53752 -81.50007 17025 ft 236 kts 358°
2026-04-26 18:04 30.55373 -81.49923 17022 ft 236 kts 357°
2026-04-26 18:05 30.58672 -81.49765 17027 ft 235 kts 358°
2026-04-26 18:05 30.60312 -81.49676 17032 ft 236 kts 357°
2026-04-26 18:05 30.61950 -81.49586 17032 ft 236 kts 357°
2026-04-26 18:05 30.63589 -81.49502 17029 ft 236 kts 357°
2026-04-26 18:06 30.65229 -81.49421 17030 ft 236 kts 357°
2026-04-26 18:06 30.66871 -81.49341 17031 ft 236 kts 357°
2026-04-26 18:06 30.68514 -81.49259 17031 ft 236 kts 357°
2026-04-26 18:06 30.70160 -81.49177 17031 ft 237 kts 357°
2026-04-26 18:07 30.71804 -81.49095 17030 ft 237 kts 357°
2026-04-26 18:07 30.73450 -81.49012 17026 ft 237 kts 357°
2026-04-26 18:07 30.75099 -81.48929 17023 ft 237 kts 357°
2026-04-26 18:07 30.76213 -81.48873 17023 ft 237 kts 357°
2026-04-26 18:08 30.78398 -81.48762 17022 ft 237 kts 357°
2026-04-26 18:08 30.80045 -81.48678 17023 ft 237 kts 357°
2026-04-26 18:08 30.81695 -81.48595 17023 ft 237 kts 357°
2026-04-26 18:08 30.83344 -81.48512 17021 ft 237 kts 357°
2026-04-26 18:09 30.84993 -81.48430 17021 ft 237 kts 357°
2026-04-26 18:09 30.86645 -81.48352 17022 ft 238 kts 357°
2026-04-26 18:09 30.88298 -81.48270 17023 ft 238 kts 357°
2026-04-26 18:09 30.89950 -81.48184 17021 ft 238 kts 357°
2026-04-26 18:10 30.91601 -81.48100 17021 ft 238 kts 357°
2026-04-26 18:10 30.93255 -81.48015 17017 ft 238 kts 357°
2026-04-26 18:10 30.94907 -81.47931 17015 ft 238 kts 357°
2026-04-26 18:10 30.96559 -81.47847 17014 ft 238 kts 357°
2026-04-26 18:11 30.98215 -81.47761 17014 ft 238 kts 357°
2026-04-26 18:11 30.99867 -81.47678 17014 ft 238 kts 357°
2026-04-26 18:11 31.01522 -81.47595 17013 ft 238 kts 357°
2026-04-26 18:11 31.03155 -81.47512 17013 ft 238 kts 357°
2026-04-26 18:12 31.04812 -81.47428 17012 ft 238 kts 357°
2026-04-26 18:12 31.06487 -81.47343 17012 ft 238 kts 357°
2026-04-26 18:12 31.08119 -81.47260 17012 ft 238 kts 357°
2026-04-26 18:12 31.09771 -81.47176 17012 ft 238 kts 357°
2026-04-26 18:13 31.11424 -81.47092 17013 ft 238 kts 357°
2026-04-26 18:13 31.13099 -81.47008 17013 ft 238 kts 356°
2026-04-26 18:13 31.14751 -81.46924 17012 ft 237 kts 357°
2026-04-26 18:13 31.15843 -81.46868 17012 ft 237 kts 357°
2026-04-26 18:14 31.18026 -81.46757 17013 ft 237 kts 356°
2026-04-26 18:14 31.19697 -81.46671 17013 ft 237 kts 356°
2026-04-26 18:14 31.21321 -81.46589 17013 ft 237 kts 357°
2026-04-26 18:14 31.22969 -81.46506 17013 ft 237 kts 356°
2026-04-26 18:15 31.24616 -81.46422 17013 ft 237 kts 356°
2026-04-26 18:15 31.26261 -81.46339 17013 ft 237 kts 356°
2026-04-26 18:15 31.27912 -81.46256 17013 ft 237 kts 356°
2026-04-26 18:15 31.29563 -81.46171 17012 ft 238 kts 357°
2026-04-26 18:16 31.31215 -81.46086 17012 ft 237 kts 357°
2026-04-26 18:16 31.34516 -81.45917 17012 ft 237 kts 356°
2026-04-26 18:16 31.36167 -81.45833 17013 ft 238 kts 357°
2026-04-26 18:17 31.37822 -81.45749 17013 ft 238 kts 357°
2026-04-26 18:17 31.39475 -81.45664 17013 ft 238 kts 357°
2026-04-26 18:17 31.41123 -81.45579 17019 ft 237 kts 357°
2026-04-26 18:17 31.42767 -81.45495 17020 ft 236 kts 357°
2026-04-26 18:18 31.44406 -81.45411 17021 ft 236 kts 356°
2026-04-26 18:18 31.46043 -81.45329 17017 ft 236 kts 356°
2026-04-26 18:18 31.47682 -81.45245 17014 ft 235 kts 356°
2026-04-26 18:18 31.49317 -81.45161 17013 ft 235 kts 357°
2026-04-26 18:19 31.50952 -81.45076 17013 ft 235 kts 356°
2026-04-26 18:19 31.52582 -81.44994 17012 ft 234 kts 356°
2026-04-26 18:19 31.54211 -81.44912 17009 ft 234 kts 356°